• In Italy
  • List of Countries
  • For 7 days
  • Water Temperature
  • Satellite Maps
  • Weather Map
  • Weather Widgets
  • user-avatar
    Login

    Hourly Weather Asadabad

    Today, 19 October, Thursday

    Time Temperature Precipitation Wind Pressure Humidity
    00:00 +18°C° 0 mm 2 mps 658 mmHg 25%
    01:00 +18°C° 0 mm 2 mps 658 mmHg 24%
    02:00 +18°C° 0 mm 2 mps 658 mmHg 23%
    03:00 +17°C° 0 mm 2 mps 658 mmHg 23%
    04:00 +17°C° 0 mm 2 mps 658 mmHg 23%
    05:00 +17°C° 0 mm 2 mps 658 mmHg 23%
    06:00 +18°C° 0 mm 2 mps 658 mmHg 22%
    07:00 +19°C° 0 mm 2 mps 659 mmHg 21%
    08:00 +21°C° 0 mm 2 mps 660 mmHg 20%
    09:00 +23°C° 0 mm 2 mps 660 mmHg 18%
    10:00 +25°C° 0 mm 2 mps 660 mmHg 17%
    11:00 +26°C° 0 mm 2 mps 661 mmHg 15%
    12:00 +27°C° 0 mm 2 mps 660 mmHg 15%
    13:00 +27°C° 0 mm 2 mps 660 mmHg 15%
    14:00 +27°C° 0 mm 3 mps 660 mmHg 15%
    15:00 +27°C° 0 mm 2 mps 660 mmHg 17%
    16:00 +26°C° 0 mm 2 mps 660 mmHg 19%
    17:00 +25°C° 0 mm 1 mps 659 mmHg 22%
    18:00 +23°C° 0 mm 1 mps 659 mmHg 24%
    19:00 +20°C° 0 mm 2 mps 659 mmHg 26%
    20:00 +19°C° 0 mm 2 mps 659 mmHg 28%
    21:00 +18°C° 0 mm 2 mps 659 mmHg 28%
    22:00 +18°C° 0 mm 2 mps 659 mmHg 28%
    23:00 +18°C° 0 mm 2 mps 659 mmHg 28%

    Tomorrow, 20 October, Friday

    Time Temperature Precipitation Wind Pressure Humidity
    00:00 +17°C° 0 mm 2 mps 659 mmHg 29%
    01:00 +17°C° 0 mm 2 mps 658 mmHg 30%
    02:00 +16°C° 0 mm 2 mps 658 mmHg 30%
    03:00 +16°C° 0 mm 3 mps 658 mmHg 31%
    04:00 +16°C° 0 mm 3 mps 658 mmHg 32%
    05:00 +14°C° 0 mm 3 mps 658 mmHg 32%
    06:00 +17°C° 0 mm 3 mps 658 mmHg 30%
    07:00 +18°C° 0 mm 3 mps 659 mmHg 28%
    08:00 +19°C° 0 mm 3 mps 660 mmHg 27%
    09:00 +21°C° 0 mm 2 mps 660 mmHg 23%
    10:00 +23°C° 0 mm 2 mps 660 mmHg 19%
    11:00 +25°C° 0 mm 2 mps 661 mmHg 16%
    12:00 +25°C° 0 mm 2 mps 660 mmHg 15%
    13:00 +26°C° 0 mm 2 mps 660 mmHg 15%
    14:00 +26°C° 0 mm 2 mps 660 mmHg 14%
    15:00 +26°C° 0 mm 2 mps 659 mmHg 17%
    16:00 +25°C° 0 mm 1 mps 659 mmHg 19%
    17:00 +24°C° 0 mm 1 mps 659 mmHg 22%
    18:00 +23°C° 0 mm 1 mps 659 mmHg 22%
    19:00 +20°C° 0 mm 2 mps 659 mmHg 22%
    20:00 +18°C° 0 mm 2 mps 658 mmHg 22%
    21:00 +18°C° 0 mm 2 mps 658 mmHg 23%
    22:00 +17°C° 0 mm 2 mps 658 mmHg 23%
    23:00 +17°C° 0 mm 2 mps 658 mmHg 24%

    Day after tomorrow, 21 October, Saturday

    Time Temperature Precipitation Wind Pressure Humidity
    00:00 +17°C° 0 mm 2 mps 657 mmHg 24%
    01:00 +16°C° 0 mm 2 mps 657 mmHg 25%
    02:00 +16°C° 0 mm 2 mps 657 mmHg 25%
    03:00 +15°C° 0 mm 2 mps 656 mmHg 26%
    04:00 +15°C° 0 mm 2 mps 656 mmHg 27%
    05:00 +15°C° 0 mm 2 mps 656 mmHg 28%
    06:00 +16°C° 0 mm 2 mps 657 mmHg 26%
    07:00 +18°C° 0 mm 2 mps 657 mmHg 23%
    08:00 +20°C° 0 mm 2 mps 658 mmHg 20%
    09:00 +21°C° 0 mm 2 mps 658 mmHg 18%
    10:00 +24°C° 0 mm 2 mps 658 mmHg 15%
    11:00 +26°C° 0 mm 2 mps 659 mmHg 12%
    12:00 +26°C° 0 mm 2 mps 658 mmHg 12%
    13:00 +26°C° 0 mm 2 mps 658 mmHg 12%
    14:00 +27°C° 0 mm 2 mps 657 mmHg 12%
    15:00 +26°C° 0 mm 2 mps 657 mmHg 15%
    16:00 +25°C° 0 mm 2 mps 657 mmHg 17%
    17:00 +24°C° 0 mm 1 mps 656 mmHg 20%
    18:00 +22°C° 0 mm 1 mps 656 mmHg 21%
    19:00 +20°C° 0 mm 1 mps 656 mmHg 23%
    20:00 +18°C° 0 mm 1 mps 656 mmHg 24%
    21:00 +18°C° 0 mm 1 mps 656 mmHg 24%
    22:00 +17°C° 0 mm 2 mps 656 mmHg 23%
    23:00 +17°C° 0 mm 2 mps 656 mmHg 23%

    22 October, Sunday

    Time Temperature Precipitation Wind Pressure Humidity
    00:00 +16°C° 0 mm 2 mps 656 mmHg 23%
    01:00 +16°C° 0 mm 2 mps 655 mmHg 23%
    02:00 +16°C° 0 mm 2 mps 655 mmHg 23%
    03:00 +15°C° 0 mm 2 mps 655 mmHg 23%
    04:00 +15°C° 0 mm 2 mps 654 mmHg 22%
    05:00 +14°C° 0 mm 2 mps 654 mmHg 22%
    06:00 +16°C° 0 mm 2 mps 655 mmHg 21%
    07:00 +17°C° 0 mm 2 mps 656 mmHg 20%
    08:00 +19°C° 0 mm 2 mps 657 mmHg 18%
    09:00 +20°C° 0 mm 2 mps 657 mmHg 17%
    10:00 +21°C° 0 mm 2 mps 657 mmHg 15%
    11:00 +24°C° 0 mm 2 mps 657 mmHg 13%
    12:00 +24°C° 0 mm 2 mps 657 mmHg 13%
    13:00 +25°C° 0 mm 2 mps 657 mmHg 13%
    14:00 +25°C° 0 mm 2 mps 657 mmHg 14%
    15:00 +24°C° 0 mm 2 mps 656 mmHg 16%
    16:00 +23°C° 0 mm 2 mps 656 mmHg 18%
    17:00 +23°C° 0 mm 1 mps 656 mmHg 20%
    18:00 +21°C° 0 mm 1 mps 656 mmHg 22%
    19:00 +19°C° 0 mm 1 mps 656 mmHg 23%
    20:00 +18°C° 0 mm 1 mps 656 mmHg 24%
    21:00 +16°C° 0 mm 2 mps 656 mmHg 24%
    22:00 +16°C° 0 mm 2 mps 656 mmHg 25%
    23:00 +16°C° 0 mm 2 mps 656 mmHg 25%

    23 October, Monday

    Time Temperature Precipitation Wind Pressure Humidity
    00:00 +15°C° 0 mm 2 mps 656 mmHg 25%
    01:00 +14°C° 0 mm 3 mps 656 mmHg 26%
    02:00 +13°C° 0 mm 3 mps 656 mmHg 26%
    03:00 +13°C° 0 mm 3 mps 656 mmHg 26%
    04:00 +13°C° 0 mm 3 mps 656 mmHg 26%
    05:00 +12°C° 0 mm 3 mps 655 mmHg 26%
    06:00 +15°C° 0 mm 2 mps 656 mmHg 24%
    07:00 +16°C° 0 mm 2 mps 657 mmHg 23%
    08:00 +17°C° 0 mm 2 mps 658 mmHg 22%
    09:00 +19°C° 0 mm 2 mps 658 mmHg 19%
    10:00 +20°C° 0 mm 2 mps 659 mmHg 16%
    11:00 +23°C° 0 mm 2 mps 659 mmHg 14%
    12:00 +23°C° 0 mm 2 mps 659 mmHg 13%
    13:00 +24°C° 0 mm 2 mps 658 mmHg 13%
    14:00 +24°C° 0 mm 2 mps 658 mmHg 13%
    15:00 +24°C° 0 mm 2 mps 658 mmHg 15%
    16:00 +23°C° 0 mm 2 mps 658 mmHg 17%
    17:00 +22°C° 0 mm 1 mps 658 mmHg 20%
    18:00 +20°C° 0 mm 1 mps 658 mmHg 20%
    19:00 +19°C° 0 mm 1 mps 658 mmHg 21%
    20:00 +16°C° 0 mm 2 mps 658 mmHg 22%
    21:00 +16°C° 0 mm 2 mps 658 mmHg 21%
    22:00 +16°C° 0 mm 2 mps 659 mmHg 21%
    23:00 +15°C° 0 mm 2 mps 659 mmHg 21%

    24 October, Tuesday

    Time Temperature Precipitation Wind Pressure Humidity
    00:00 +14°C° 0 mm 3 mps 658 mmHg 21%
    01:00 +14°C° 0 mm 3 mps 658 mmHg 21%
    02:00 +13°C° 0 mm 3 mps 658 mmHg 21%
    03:00 +13°C° 0 mm 3 mps 658 mmHg 21%
    04:00 +13°C° 0 mm 3 mps 658 mmHg 21%
    05:00 +13°C° 0 mm 3 mps 658 mmHg 21%
    06:00 +14°C° 0 mm 3 mps 659 mmHg 20%
    07:00 +16°C° 0 mm 3 mps 659 mmHg 19%
    08:00 +18°C° 0 mm 3 mps 660 mmHg 18%
    09:00 +20°C° 0 mm 2 mps 661 mmHg 15%
    10:00 +23°C° 0 mm 2 mps 661 mmHg 13%
    11:00 +25°C° 0 mm 2 mps 661 mmHg 10%
    12:00 +25°C° 0 mm 2 mps 661 mmHg 10%
    13:00 +26°C° 0 mm 2 mps 660 mmHg 9%
    14:00 +27°C° 0 mm 3 mps 660 mmHg 9%
    15:00 +25°C° 0 mm 2 mps 660 mmHg 11%
    16:00 +24°C° 0 mm 2 mps 660 mmHg 14%
    17:00 +23°C° 0 mm 1 mps 659 mmHg 16%
    18:00 +21°C° 0 mm 2 mps 659 mmHg 16%
    19:00 +19°C° 0 mm 2 mps 659 mmHg 16%
    20:00 +17°C° 0 mm 2 mps 659 mmHg 17%
    21:00 +17°C° 0 mm 2 mps 659 mmHg 16%
    22:00 +17°C° 0 mm 2 mps 659 mmHg 16%
    23:00 +17°C° 0 mm 3 mps 659 mmHg 16%
    Show more